| time (UTC) | temp F | wind direction | speed knots | gust knots | rain 1hr in | rain 24hr in | rain mn in | humidity % | barometer mb |
| 20260831103337 | 53 | 278 | 3.5 | 9.6 | 0.00 | 0.00 | 0.00 | 10 | 958.0 |
| 20260831102837 | 53 | 260 | 3.5 | 8.7 | 0.00 | 0.00 | 0.00 | 10 | 957.8 |
| 20260831102337 | 53 | 258 | 4.3 | 11.3 | 0.00 | 0.00 | 0.00 | 10 | 957.7 |
| 20260831101837 | 53 | 257 | 5.2 | 12.2 | 0.00 | 0.00 | 0.00 | 10 | 957.7 |
| 20260831101337 | 53 | 227 | 4.3 | 12.2 | 0.00 | 0.00 | 0.00 | 10 | 957.8 |
| 20260831100837 | 53 | 222 | 2.6 | 8.7 | 0.00 | 0.00 | 0.00 | 10 | 958.1 |
| 20260831100337 | 53 | 135 | 2.6 | 7.8 | 0.00 | 0.00 | 0.00 | 10 | 958.1 |
| 20260831095837 | 53 | 46 | 2.6 | 7.0 | 0.00 | 0.00 | 0.00 | 10 | 958.0 |
| 20260831095337 | 53 | 228 | 2.6 | 7.0 | 0.00 | 0.00 | 0.00 | 10 | 958.0 |
| 20260831094837 | 53 | 196 | 1.7 | 6.1 | 0.00 | 0.00 | 0.00 | 10 | 957.9 |
| 20260831094337 | 53 | 150 | 1.7 | 7.8 | 0.00 | 0.00 | 0.00 | 10 | 957.9 |
| 20260831093837 | 53 | 167 | 2.6 | 7.8 | 0.00 | 0.00 | 0.00 | 10 | 957.9 |
| 20260831093337 | 53 | 26 | 2.6 | 6.1 | 0.00 | 0.00 | 0.00 | 10 | 957.8 |
| 20260831092837 | 53 | 317 | 2.6 | 8.7 | 0.00 | 0.00 | 0.00 | 10 | 957.9 |
| 20260831092337 | 53 | 254 | 2.6 | 8.7 | 0.00 | 0.00 | 0.00 | 10 | 957.7 |
| 20260831091837 | 53 | 211 | 3.5 | 7.8 | 0.00 | 0.00 | 0.00 | 10 | 957.7 |
| 20260831091337 | 53 | 244 | 3.5 | 7.8 | 0.00 | 0.00 | 0.00 | 10 | 957.7 |
| 20260831090837 | 53 | 295 | 3.5 | 7.0 | 0.00 | 0.00 | 0.00 | 10 | 957.7 |
| 20260831090337 | 53 | 289 | 3.5 | 7.0 | 0.00 | 0.00 | 0.00 | 10 | 957.6 |
| 20260831085836 | 53 | 252 | 2.6 | 7.0 | 0.00 | 0.00 | 0.00 | 10 | 957.4 |
| 20260831085336 | 54 | 311 | 2.6 | 6.1 | 0.00 | 0.00 | 0.00 | 10 | 957.5 |
| 20260831084836 | 54 | 245 | 2.6 | 7.8 | 0.00 | 0.00 | 0.00 | 10 | 957.5 |
| 20260831084336 | 53 | 287 | 2.6 | 7.8 | 0.00 | 0.00 | 0.00 | 10 | 957.4 |
| 20260831083836 | 53 | 282 | 2.6 | 5.2 | 0.00 | 0.00 | 0.00 | 10 | 957.5 |
| 20260831083336 | 53 | 249 | 1.7 | 5.2 | 0.00 | 0.00 | 0.00 | 10 | 957.4 |
| 20260831082836 | 53 | 303 | 2.6 | 7.8 | 0.00 | 0.00 | 0.00 | 10 | 957.4 |
| 20260831082336 | 53 | 266 | 1.7 | 7.8 | 0.00 | 0.00 | 0.00 | 10 | 957.4 |
| 20260831081836 | 53 | 232 | 1.7 | 7.0 | 0.00 | 0.00 | 0.00 | 10 | 957.5 |
| 20260831081336 | 53 | 267 | 2.6 | 7.0 | 0.00 | 0.00 | 0.00 | 10 | 957.7 |
| 20260831080836 | 53 | 242 | 2.6 | 7.0 | 0.00 | 0.00 | 0.00 | 10 | 957.5 |
| 20260831080336 | 53 | 226 | 1.7 | 8.7 | 0.00 | 0.00 | 0.00 | 10 | 957.6 |
| 20260831075836 | 53 | 234 | 1.7 | 8.7 | 0.00 | 0.00 | 0.00 | 10 | 957.8 |
| 20260831075336 | 53 | 229 | 1.7 | 5.2 | 0.00 | 0.00 | 0.00 | 10 | 957.7 |
| 20260831074835 | 52 | 258 | 1.7 | 5.2 | 0.00 | 0.00 | 0.00 | 10 | 957.6 |
| 20260831074335 | 52 | 246 | 2.6 | 5.2 | 0.00 | 0.00 | 0.00 | 10 | 957.7 |
| 20260831073835 | 52 | 236 | 2.6 | 5.2 | 0.00 | 0.00 | 0.00 | 10 | 957.6 |
| 20260831073335 | 52 | 213 | 2.6 | 7.8 | 0.00 | 0.00 | 0.00 | 10 | 957.7 |
| 20260831072835 | 52 | 270 | 3.5 | 8.7 | 0.00 | 0.00 | 0.00 | 10 | 957.7 |
| 20260831072335 | 52 | 270 | 4.3 | 8.7 | 0.00 | 0.00 | 0.00 | 10 | 957.6 |
| 20260831071835 | 52 | 330 | 4.3 | 10.4 | 0.00 | 0.00 | 0.00 | 10 | 957.5 |
| 20260831071335 | 52 | 262 | 4.3 | 10.4 | 0.00 | 0.00 | 0.00 | 10 | 957.5 |
| 20260831070835 | 52 | 272 | 4.3 | 10.4 | 0.00 | 0.00 | 0.00 | 10 | 957.6 |
| 20260831070335 | 52 | 324 | 3.5 | 8.7 | 0.00 | 0.00 | 0.00 | 10 | 957.6 |
| 20260831065835 | 52 | 241 | 3.5 | 8.7 | 0.00 | 0.00 | 0.00 | 10 | 957.6 |
| 20260831065335 | 52 | 294 | 3.5 | 9.6 | 0.00 | 0.00 | 0.00 | 10 | 957.7 |
| 20260831064835 | 52 | 247 | 4.3 | 9.6 | 0.00 | 0.00 | 0.00 | 10 | 957.6 |
| 20260831064335 | 52 | 269 | 4.3 | 9.6 | 0.00 | 0.00 | 0.00 | 10 | 957.6 |
| 20260831063835 | 52 | 274 | 3.5 | 8.7 | 0.00 | 0.00 | 0.00 | 10 | 957.6 |
| 20260831063335 | 52 | 282 | 3.5 | 8.7 | 0.00 | 0.00 | 0.00 | 10 | 957.6 |
| 20260831062834 | 52 | 284 | 3.5 | 8.7 | 0.00 | 0.00 | 0.00 | 10 | 957.6 |
| 20260831062334 | 52 | 322 | 3.5 | 8.7 | 0.00 | 0.00 | 0.00 | 10 | 957.6 |
| 20260831061834 | 52 | 249 | 3.5 | 8.7 | 0.00 | 0.00 | 0.00 | 10 | 957.6 |
| 20260831061334 | 52 | 335 | 2.6 | 7.0 | 0.00 | 0.00 | 0.00 | 10 | 957.5 |
| 20260831060834 | 52 | 274 | 2.6 | 7.0 | 0.00 | 0.00 | 0.00 | 10 | 957.7 |
| 20260831060334 | 52 | 252 | 2.6 | 7.0 | 0.00 | 0.00 | 0.00 | 10 | 957.6 |
| 20260831055834 | 52 | 249 | 2.6 | 7.8 | 0.00 | 0.00 | 0.00 | 10 | 957.5 |
| 20260831055334 | 52 | 260 | 2.6 | 7.8 | 0.00 | 0.00 | 0.00 | 10 | 957.5 |
| 20260831054834 | 52 | 218 | 1.7 | 5.2 | 0.00 | 0.00 | 0.00 | 10 | 957.7 |
| 20260831054304 | 52 | 185 | 1.7 | 6.1 | 0.00 | 0.00 | 0.00 | 10 | 957.6 |
| 20260831053804 | 52 | 276 | 1.7 | 6.1 | 0.00 | 0.00 | 0.00 | 10 | 957.7 |
| 20260831053304 | 52 | 329 | 2.6 | 6.1 | 0.00 | 0.00 | 0.00 | 10 | 957.7 |
| 20260831052804 | 52 | 261 | 1.7 | 8.7 | 0.00 | 0.00 | 0.00 | 10 | 957.7 |
| 20260831052306 | 52 | 246 | 1.7 | 8.7 | 0.00 | 0.00 | 0.00 | 10 | 957.7 |
| 20260831051804 | 53 | 260 | 1.7 | 7.8 | 0.00 | 0.00 | 0.00 | 10 | 957.6 |
| 20260831051304 | 52 | 257 | 1.7 | 5.2 | 0.00 | 0.00 | 0.00 | 10 | 957.6 |
| 20260831050804 | 52 | 282 | 1.7 | 4.3 | 0.00 | 0.00 | 0.00 | 10 | 957.6 |
| 20260831050303 | 53 | 237 | 0.9 | 3.5 | 0.00 | 0.00 | 0.00 | 10 | 957.7 |
| 20260831045803 | 53 | 89 | 0.9 | 4.3 | 0.00 | 0.00 | 0.00 | 10 | 957.8 |
| 20260831045306 | 53 | 278 | 0.9 | 4.3 | 0.00 | 0.00 | 0.00 | 10 | 957.7 |
| 20260831044803 | 52 | 253 | 0.9 | 4.3 | 0.00 | 0.00 | 0.00 | 10 | 957.8 |
| 20260831044303 | 52 | 178 | 0.9 | 4.3 | 0.00 | 0.00 | 0.00 | 10 | 957.8 |
| 20260831043803 | 52 | 246 | 0.9 | 4.3 | 0.00 | 0.00 | 0.00 | 10 | 957.7 |
| 20260831043303 | 52 | 174 | 1.7 | 5.2 | 0.00 | 0.00 | 0.00 | 10 | 957.7 |
| 20260831042803 | 52 | 240 | 1.7 | 7.8 | 0.00 | 0.00 | 0.00 | 10 | 957.8 |
| 20260831042306 | 52 | 128 | 2.6 | 7.8 | 0.00 | 0.00 | 0.00 | 10 | 957.7 |
| 20260831041803 | 52 | 238 | 3.5 | 7.8 | 0.00 | 0.00 | 0.00 | 10 | 957.7 |
| 20260831041303 | 52 | 288 | 3.5 | 7.0 | 0.00 | 0.00 | 0.00 | 10 | 957.7 |
| 20260831040803 | 53 | 285 | 3.5 | 6.1 | 0.00 | 0.00 | 0.00 | 10 | 957.5 |
| 20260831040303 | 53 | 292 | 2.6 | 5.2 | 0.00 | 0.00 | 0.00 | 10 | 957.6 |
| 20260831035803 | 53 | 264 | 1.7 | 4.3 | 0.00 | 0.00 | 0.00 | 10 | 957.6 |
| 20260831035306 | 53 | 292 | 1.7 | 4.3 | 0.00 | 0.00 | 0.00 | 10 | 957.6 |
| 20260831034802 | 53 | 241 | 0.9 | 4.3 | 0.00 | 0.00 | 0.00 | 10 | 957.8 |
| 20260831034302 | 53 | 290 | 0.9 | 3.5 | 0.00 | 0.00 | 0.00 | 10 | 957.6 |
| 20260831033802 | 53 | 229 | 0.9 | 3.5 | 0.00 | 0.00 | 0.00 | 10 | 957.7 |
| 20260831033302 | 53 | 231 | 1.7 | 5.2 | 0.00 | 0.00 | 0.00 | 10 | 957.8 |
| 20260831032802 | 53 | 199 | 1.7 | 5.2 | 0.00 | 0.00 | 0.00 | 10 | 957.9 |
| 20260831032306 | 53 | 262 | 0.9 | 5.2 | 0.00 | 0.00 | 0.00 | 10 | 957.9 |
| 20260831031802 | 53 | 114 | 1.7 | 5.2 | 0.00 | 0.00 | 0.00 | 10 | 957.9 |
| 20260831031302 | 53 | 328 | 1.7 | 5.2 | 0.00 | 0.00 | 0.00 | 10 | 957.9 |
| 20260831030802 | 53 | 254 | 1.7 | 7.0 | 0.00 | 0.00 | 0.00 | 10 | 957.9 |
| 20260831030302 | 53 | 267 | 1.7 | 7.0 | 0.00 | 0.00 | 0.00 | 10 | 957.8 |
| 20260831025802 | 53 | 235 | 1.7 | 7.0 | 0.00 | 0.00 | 0.00 | 10 | 957.7 |
| 20260831025306 | 53 | 300 | 1.7 | 5.2 | 0.00 | 0.00 | 0.00 | 10 | 957.8 |
| 20260831024802 | 53 | 274 | 1.7 | 5.2 | 0.00 | 0.00 | 0.00 | 10 | 957.7 |
| 20260831024302 | 53 | 315 | 2.6 | 6.1 | 0.00 | 0.00 | 0.00 | 10 | 957.7 |
| 20260831023801 | 54 | 277 | 2.6 | 6.1 | 0.00 | 0.00 | 0.00 | 99 | 957.7 |
| 20260831023301 | 54 | 239 | 2.6 | 6.1 | 0.00 | 0.00 | 0.00 | 98 | 957.8 |
| 20260831022801 | 54 | 252 | 1.7 | 7.0 | 0.00 | 0.00 | 0.00 | 98 | 957.8 |
| 20260831022301 | 54 | 284 | 2.6 | 8.7 | 0.00 | 0.00 | 0.00 | 98 | 957.8 |
| 20260831021801 | 54 | 256 | 2.6 | 8.7 | 0.00 | 0.00 | 0.00 | 97 | 957.8 |
| 20260831021301 | 54 | 240 | 2.6 | 6.1 | 0.00 | 0.00 | 0.00 | 97 | 957.9 |
| 20260831020801 | 54 | 249 | 2.6 | 6.1 | 0.00 | 0.00 | 0.00 | 97 | 957.8 |
| 20260831020301 | 55 | 201 | 1.7 | 5.2 | 0.00 | 0.00 | 0.00 | 97 | 957.8 |
| 20260831015801 | 55 | 205 | 1.7 | 5.2 | 0.00 | 0.00 | 0.00 | 97 | 957.9 |
| 20260831015301 | 55 | 226 | 1.7 | 6.1 | 0.00 | 0.00 | 0.00 | 97 | 958.0 |
| 20260831014801 | 55 | 246 | 2.6 | 6.1 | 0.00 | 0.00 | 0.00 | 97 | 958.0 |
| 20260831014301 | 55 | 197 | 2.6 | 5.2 | 0.00 | 0.00 | 0.00 | 97 | 958.1 |
| 20260831013801 | 55 | 220 | 1.7 | 5.2 | 0.00 | 0.00 | 0.00 | 97 | 958.1 |
| 20260831013301 | 55 | 215 | 1.7 | 5.2 | 0.00 | 0.00 | 0.00 | 97 | 958.1 |
| 20260831012801 | 55 | 154 | 1.7 | 5.2 | 0.00 | 0.00 | 0.00 | 97 | 958.1 |
| 20260831012300 | 55 | 228 | 1.7 | 6.1 | 0.00 | 0.00 | 0.00 | 97 | 958.0 |
| 20260831011800 | 55 | 226 | 1.7 | 6.1 | 0.00 | 0.00 | 0.00 | 97 | 957.9 |
| 20260831011300 | 55 | 19 | 1.7 | 5.2 | 0.00 | 0.00 | 0.00 | 97 | 958.0 |
| 20260831010800 | 55 | 188 | 1.7 | 7.0 | 0.00 | 0.00 | 0.00 | 97 | 957.9 |
| 20260831010300 | 55 | 170 | 1.7 | 7.0 | 0.00 | 0.00 | 0.00 | 97 | 957.9 |
| 20260831005800 | 55 | 111 | 1.7 | 5.2 | 0.00 | 0.00 | 0.00 | 97 | 957.9 |
| 20260831005300 | 55 | 233 | 1.7 | 4.3 | 0.00 | 0.00 | 0.00 | 97 | 957.9 |
| 20260831004800 | 55 | 134 | 1.7 | 4.3 | 0.00 | 0.00 | 0.00 | 97 | 957.9 |
| 20260831004300 | 55 | 235 | 1.7 | 4.3 | 0.00 | 0.00 | 0.00 | 97 | 958.1 |
| 20260831003800 | 55 | 240 | 1.7 | 3.5 | 0.00 | 0.00 | 0.00 | 97 | 958.0 |
| 20260831003300 | 55 | 131 | 1.7 | 4.3 | 0.00 | 0.00 | 0.00 | 98 | 957.9 |
| 20260831002800 | 55 | 235 | 1.7 | 6.1 | 0.00 | 0.00 | 0.00 | 98 | 957.9 |
| 20260831002300 | 55 | 254 | 1.7 | 6.1 | 0.00 | 0.00 | 0.00 | 97 | 957.9 |
| 20260831001800 | 55 | 237 | 1.7 | 6.1 | 0.00 | 0.00 | 0.00 | 97 | 957.9 |
| 20260831001259 | 55 | 114 | 1.7 | 6.1 | 0.00 | 0.00 | 0.00 | 97 | 958.0 |
| 20260831000759 | 55 | 280 | 1.7 | 6.1 | 0.00 | 0.00 | 0.00 | 97 | 957.9 |
| 20260831000259 | 56 | 237 | 1.7 | 6.1 | 0.00 | 0.00 | 0.00 | 97 | 957.9 |
| 20260830235759 | 56 | 127 | 0.9 | 4.3 | 0.00 | 0.00 | 0.00 | 97 | 957.9 |
| 20260830235259 | 56 | 165 | 0.9 | 3.5 | 0.00 | 0.00 | 0.00 | 97 | 958.0 |
| 20260830234759 | 56 | 232 | 0.9 | 5.2 | 0.00 | 0.00 | 0.00 | 98 | 958.0 |
| 20260830234259 | 56 | 109 | 0.9 | 5.2 | 0.00 | 0.00 | 0.00 | 98 | 958.0 |
| 20260830233759 | 56 | 129 | 0.9 | 4.3 | 0.00 | 0.00 | 0.00 | 98 | 958.0 |
| 20260830233259 | 56 | 70 | 1.7 | 5.2 | 0.00 | 0.00 | 0.00 | 98 | 958.0 |
| 20260830232759 | 56 | 104 | 1.7 | 5.2 | 0.00 | 0.00 | 0.00 | 98 | 958.0 |
| 20260830232259 | 56 | 236 | 0.9 | 4.3 | 0.00 | 0.00 | 0.00 | 98 | 958.0 |
| 20260830231759 | 56 | 248 | 0.9 | 3.5 | 0.00 | 0.00 | 0.00 | 98 | 958.0 |
| 20260830231259 | 56 | 91 | 0.9 | 3.5 | 0.00 | 0.00 | 0.00 | 98 | 958.0 |
| 20260830230758 | 55 | 112 | 0.9 | 3.5 | 0.00 | 0.00 | 0.00 | 99 | 958.0 |
| 20260830230258 | 55 | 154 | 1.7 | 5.2 | 0.00 | 0.00 | 0.00 | 99 | 958.1 |
| 20260830225758 | 55 | 149 | 1.7 | 5.2 | 0.00 | 0.00 | 0.00 | 99 | 957.9 |
| 20260830225258 | 55 | 233 | 1.7 | 6.1 | 0.00 | 0.00 | 0.00 | 98 | 957.9 |
| 20260830224758 | 55 | 242 | 1.7 | 6.1 | 0.00 | 0.00 | 0.00 | 98 | 957.9 |
| 20260830224258 | 55 | 152 | 1.7 | 6.1 | 0.00 | 0.00 | 0.00 | 98 | 958.0 |
| 20260830223758 | 55 | 125 | 1.7 | 7.8 | 0.00 | 0.00 | 0.00 | 98 | 957.9 |
| 20260830223258 | 55 | 128 | 1.7 | 7.8 | 0.00 | 0.00 | 0.00 | 98 | 957.9 |
| 20260830222758 | 55 | 192 | 1.7 | 5.2 | 0.00 | 0.00 | 0.00 | 98 | 957.9 |
| 20260830222258 | 55 | 229 | 1.7 | 5.2 | 0.00 | 0.00 | 0.00 | 98 | 957.9 |
| 20260830221758 | 55 | 246 | 2.6 | 6.1 | 0.00 | 0.00 | 0.00 | 99 | 957.9 |
| 20260830221258 | 55 | 225 | 2.6 | 6.1 | 0.00 | 0.00 | 0.00 | 99 | 957.9 |
| 20260830220758 | 55 | 204 | 2.6 | 6.1 | 0.00 | 0.00 | 0.00 | 99 | 957.9 |
| 20260830220258 | 55 | 224 | 2.6 | 6.1 | 0.00 | 0.00 | 0.00 | 99 | 957.8 |
| 20260830215758 | 55 | 210 | 1.7 | 5.2 | 0.00 | 0.00 | 0.00 | 99 | 957.9 |
| 20260830215258 | 55 | 144 | 2.6 | 5.2 | 0.00 | 0.00 | 0.00 | 99 | 957.9 |
| 20260830214758 | 55 | 203 | 2.6 | 5.2 | 0.00 | 0.00 | 0.00 | 99 | 957.8 |
| 20260830214257 | 55 | 199 | 2.6 | 7.0 | 0.00 | 0.00 | 0.00 | 99 | 957.8 |
| 20260830213757 | 55 | 234 | 3.5 | 7.8 | 0.00 | 0.00 | 0.00 | 98 | 957.9 |
| 20260830213257 | 56 | 226 | 2.6 | 9.6 | 0.00 | 0.00 | 0.00 | 98 | 957.9 |
| 20260830212757 | 56 | 222 | 2.6 | 9.6 | 0.00 | 0.00 | 0.00 | 98 | 957.8 |
| 20260830212257 | 56 | 213 | 1.7 | 7.0 | 0.00 | 0.00 | 0.00 | 98 | 958.0 |
| 20260830211757 | 56 | 119 | 1.7 | 5.2 | 0.00 | 0.00 | 0.00 | 98 | 958.0 |
| 20260830211257 | 56 | 81 | 1.7 | 7.0 | 0.00 | 0.00 | 0.00 | 97 | 958.0 |
| 20260830210757 | 56 | 182 | 1.7 | 7.0 | 0.00 | 0.00 | 0.00 | 97 | 958.0 |
| 20260830210257 | 57 | 229 | 0.9 | 7.0 | 0.00 | 0.00 | 0.00 | 96 | 958.0 |
| 20260830205757 | 57 | 122 | 0.9 | 4.3 | 0.00 | 0.00 | 0.00 | 96 | 958.0 |
| 20260830205257 | 58 | 88 | 0.0 | 2.6 | 0.00 | 0.00 | 0.00 | 97 | 958.1 |
| 20260830204757 | 57 | 30 | 0.0 | 3.5 | 0.00 | 0.00 | 0.00 | 97 | 957.9 |
| 20260830204257 | 57 | 72 | 0.0 | 3.5 | 0.00 | 0.00 | 0.00 | 97 | 958.0 |
| 20260830203757 | 57 | 119 | 0.0 | 2.6 | 0.00 | 0.00 | 0.00 | 97 | 958.0 |
| 20260830203256 | 57 | 19 | 0.9 | 3.5 | 0.00 | 0.00 | 0.00 | 97 | 957.8 |
| 20260830202756 | 57 | 211 | 0.9 | 4.3 | 0.00 | 0.00 | 0.00 | 97 | 957.8 |
| 20260830202256 | 56 | 228 | 1.7 | 5.2 | 0.00 | 0.00 | 0.00 | 97 | 957.8 |
| 20260830201756 | 56 | 231 | 1.7 | 5.2 | 0.00 | 0.00 | 0.00 | 97 | 957.8 |
| 20260830201256 | 56 | 162 | 1.7 | 5.2 | 0.00 | 0.00 | 0.00 | 97 | 957.8 |
| 20260830200756 | 56 | 290 | 2.6 | 7.0 | 0.00 | 0.00 | 0.00 | 97 | 957.7 |
| 20260830200256 | 56 | 310 | 2.6 | 7.0 | 0.00 | 0.00 | 0.00 | 97 | 957.8 |
| 20260830195756 | 56 | 242 | 2.6 | 7.0 | 0.00 | 0.00 | 0.00 | 96 | 957.6 |
| 20260830195256 | 56 | 278 | 2.6 | 7.0 | 0.00 | 0.00 | 0.00 | 96 | 957.6 |
| 20260830194756 | 56 | 247 | 2.6 | 7.0 | 0.00 | 0.00 | 0.00 | 96 | 957.6 |
| 20260830194256 | 57 | 205 | 2.6 | 7.0 | 0.00 | 0.00 | 0.00 | 96 | 957.6 |
| 20260830193756 | 57 | 242 | 2.6 | 7.0 | 0.00 | 0.00 | 0.00 | 96 | 957.6 |
| 20260830193256 | 57 | 215 | 2.6 | 7.0 | 0.00 | 0.00 | 0.00 | 96 | 957.6 |
| 20260830192755 | 57 | 242 | 2.6 | 7.8 | 0.00 | 0.00 | 0.00 | 97 | 957.6 |
| 20260830192255 | 57 | 240 | 2.6 | 8.7 | 0.00 | 0.00 | 0.00 | 97 | 957.6 |
| 20260830191755 | 57 | 252 | 2.6 | 8.7 | 0.00 | 0.00 | 0.00 | 98 | 957.5 |
| 20260830191255 | 57 | 177 | 2.6 | 7.0 | 0.00 | 0.00 | 0.00 | 98 | 957.6 |
| 20260830190755 | 57 | 232 | 2.6 | 8.7 | 0.00 | 0.00 | 0.00 | 98 | 957.4 |
| 20260830190255 | 57 | 93 | 2.6 | 8.7 | 0.00 | 0.00 | 0.00 | 98 | 957.4 |
| 20260830185755 | 57 | 228 | 1.7 | 7.0 | 0.00 | 0.00 | 0.00 | 98 | 957.5 |
| 20260830185255 | 57 | 92 | 2.6 | 7.0 | 0.00 | 0.00 | 0.00 | 98 | 957.4 |
| 20260830184755 | 57 | 229 | 3.5 | 8.7 | 0.00 | 0.00 | 0.00 | 98 | 957.1 |
| 20260830184255 | 57 | 237 | 3.5 | 8.7 | 0.00 | 0.00 | 0.00 | 98 | 957.3 |
| 20260830183755 | 57 | 223 | 2.6 | 8.7 | 0.00 | 0.00 | 0.00 | 98 | 957.3 |
| 20260830183255 | 57 | 226 | 2.6 | 8.7 | 0.00 | 0.00 | 0.00 | 98 | 957.6 |
| 20260830182755 | 57 | 219 | 2.6 | 7.8 | 0.00 | 0.00 | 0.00 | 98 | 957.5 |
| 20260830182255 | 58 | 145 | 2.6 | 7.8 | 0.00 | 0.00 | 0.00 | 98 | 957.3 |
| 20260830181755 | 58 | 252 | 2.6 | 7.0 | 0.00 | 0.00 | 0.00 | 97 | 957.3 |
| 20260830181254 | 58 | 220 | 2.6 | 7.0 | 0.00 | 0.00 | 0.00 | 97 | 957.3 |
| 20260830180754 | 58 | 164 | 2.6 | 7.8 | 0.00 | 0.00 | 0.00 | 97 | 957.2 |
| 20260830180254 | 58 | 229 | 3.5 | 7.8 | 0.00 | 0.00 | 0.00 | 97 | 957.3 |
| 20260830175754 | 58 | 255 | 3.5 | 7.8 | 0.00 | 0.00 | 0.00 | 97 | 957.1 |
| 20260830175254 | 58 | 219 | 2.6 | 7.8 | 0.00 | 0.00 | 0.00 | 97 | 957.0 |
| 20260830174754 | 58 | 235 | 2.6 | 7.8 | 0.00 | 0.00 | 0.00 | 97 | 957.0 |
| 20260830174254 | 58 | 175 | 2.6 | 8.7 | 0.00 | 0.00 | 0.00 | 97 | 957.0 |
| 20260830173754 | 58 | 53 | 3.5 | 8.7 | 0.00 | 0.00 | 0.00 | 96 | 957.0 |
| 20260830173254 | 59 | 65 | 2.6 | 7.8 | 0.00 | 0.00 | 0.00 | 96 | 957.0 |
| 20260830172754 | 59 | 235 | 2.6 | 8.7 | 0.00 | 0.00 | 0.00 | 96 | 957.0 |
| 20260830172254 | 59 | 243 | 2.6 | 8.7 | 0.00 | 0.00 | 0.00 | 96 | 957.0 |
| 20260830171754 | 59 | 214 | 3.5 | 8.7 | 0.00 | 0.00 | 0.00 | 95 | 957.0 |
| 20260830171254 | 59 | 247 | 3.5 | 8.7 | 0.00 | 0.00 | 0.00 | 95 | 956.9 |
| 20260830170754 | 59 | 210 | 3.5 | 10.4 | 0.00 | 0.00 | 0.00 | 95 | 956.9 |
| 20260830170254 | 59 | 199 | 3.5 | 10.4 | 0.00 | 0.00 | 0.00 | 94 | 956.6 |
| 20260830165754 | 59 | 230 | 3.5 | 9.6 | 0.00 | 0.00 | 0.00 | 94 | 956.5 |
| 20260830165254 | 60 | 226 | 3.5 | 9.6 | 0.00 | 0.00 | 0.00 | 95 | 956.5 |
| 20260830164753 | 59 | 228 | 3.5 | 9.6 | 0.00 | 0.00 | 0.00 | 95 | 956.5 |
| 20260830164253 | 60 | 257 | 3.5 | 9.6 | 0.00 | 0.00 | 0.00 | 94 | 956.5 |
| 20260830163753 | 60 | 226 | 4.3 | 10.4 | 0.00 | 0.00 | 0.00 | 95 | 956.5 |
| 20260830163253 | 60 | 240 | 4.3 | 11.3 | 0.00 | 0.00 | 0.00 | 94 | 956.6 |
| 20260830162753 | 60 | 242 | 4.3 | 11.3 | 0.00 | 0.00 | 0.00 | 94 | 956.5 |
| 20260830162253 | 60 | 211 | 5.2 | 11.3 | 0.00 | 0.00 | 0.00 | 94 | 956.5 |
| 20260830161753 | 60 | 205 | 5.2 | 13.0 | 0.00 | 0.00 | 0.00 | 93 | 956.4 |
| 20260830161253 | 60 | 223 | 5.2 | 13.0 | 0.00 | 0.00 | 0.00 | 92 | 956.5 |
| 20260830160753 | 61 | 151 | 5.2 | 13.0 | 0.00 | 0.00 | 0.00 | 92 | 956.4 |
| 20260830160253 | 61 | 215 | 5.2 | 13.9 | 0.00 | 0.00 | 0.00 | 91 | 956.4 |
| 20260830155753 | 61 | 230 | 5.2 | 13.9 | 0.00 | 0.00 | 0.00 | 90 | 956.5 |
| 20260830155253 | 61 | 245 | 5.2 | 13.0 | 0.00 | 0.00 | 0.00 | 90 | 956.5 |
| 20260830154753 | 62 | 231 | 5.2 | 12.2 | 0.00 | 0.00 | 0.00 | 91 | 956.4 |
| 20260830154253 | 62 | 246 | 4.3 | 12.2 | 0.00 | 0.00 | 0.00 | 92 | 956.4 |
| 20260830153753 | 62 | 230 | 4.3 | 10.4 | 0.00 | 0.00 | 0.00 | 91 | 956.3 |
| 20260830153253 | 62 | 237 | 4.3 | 11.3 | 0.00 | 0.00 | 0.00 | 88 | 956.3 |
| 20260830152752 | 63 | 245 | 4.3 | 12.2 | 0.00 | 0.00 | 0.00 | 84 | 956.2 |
| 20260830152252 | 64 | 197 | 3.5 | 12.2 | 0.00 | 0.00 | 0.00 | 86 | 956.3 |
| 20260830151752 | 65 | 182 | 2.6 | 9.6 | 0.00 | 0.00 | 0.00 | 82 | 956.2 |
| 20260830151252 | 65 | 217 | 2.6 | 8.7 | 0.00 | 0.00 | 0.00 | 78 | 956.3 |
| 20260830150752 | 66 | 176 | 2.6 | 11.3 | 0.00 | 0.00 | 0.00 | 78 | 956.2 |
| 20260830150252 | 66 | 219 | 2.6 | 11.3 | 0.00 | 0.00 | 0.00 | 75 | 956.1 |
| 20260830145752 | 68 | 161 | 1.7 | 7.0 | 0.00 | 0.00 | 0.00 | 74 | 956.3 |
| 20260830145252 | 70 | 59 | 1.7 | 7.0 | 0.00 | 0.00 | 0.00 | 72 | 956.2 |
| 20260830144752 | 70 | 22 | 1.7 | 7.0 | 0.00 | 0.00 | 0.00 | 71 | 956.3 |
| 20260830144252 | 71 | 262 | 1.7 | 6.1 | 0.00 | 0.00 | 0.00 | 68 | 956.1 |
| 20260830143752 | 71 | 64 | 1.7 | 7.8 | 0.00 | 0.00 | 0.00 | 67 | 956.1 |
| 20260830143252 | 70 | 358 | 1.7 | 7.8 | 0.00 | 0.00 | 0.00 | 72 | 956.2 |
| 20260830142752 | 69 | 86 | 1.7 | 7.8 | 0.00 | 0.00 | 0.00 | 70 | 956.3 |
| 20260830142252 | 69 | 148 | 1.7 | 4.3 | 0.00 | 0.00 | 0.00 | 72 | 956.0 |
| 20260830141751 | 68 | 91 | 1.7 | 7.0 | 0.00 | 0.00 | 0.00 | 73 | 956.2 |
| 20260830141251 | 67 | 133 | 1.7 | 7.0 | 0.00 | 0.00 | 0.00 | 73 | 956.1 |
| 20260830140751 | 68 | 158 | 0.9 | 5.2 | 0.00 | 0.00 | 0.00 | 72 | 956.0 |
| 20260830140251 | 69 | 179 | 0.9 | 4.3 | 0.00 | 0.00 | 0.00 | 74 | 956.1 |
| 20260830135751 | 69 | 89 | 0.9 | 6.1 | 0.00 | 0.00 | 0.00 | 73 | 956.1 |
| 20260830135251 | 70 | 6 | 0.9 | 6.1 | 0.00 | 0.00 | 0.00 | 73 | 956.0 |
| 20260830134751 | 70 | 163 | 0.9 | 4.3 | 0.00 | 0.00 | 0.00 | 73 | 956.0 |
| 20260830134251 | 70 | 173 | 0.9 | 3.5 | 0.00 | 0.00 | 0.00 | 75 | 956.0 |
| 20260830133751 | 70 | 242 | 0.9 | 4.3 | 0.00 | 0.00 | 0.00 | 74 | 955.9 |
| 20260830133251 | 70 | 277 | 0.9 | 4.3 | 0.00 | 0.00 | 0.00 | 73 | 955.8 |
| 20260830132751 | 71 | 263 | 0.9 | 4.3 | 0.00 | 0.00 | 0.00 | 70 | 956.0 |
| 20260830132251 | 71 | 219 | 0.9 | 4.3 | 0.00 | 0.00 | 0.00 | 70 | 955.8 |
| 20260830131751 | 72 | 218 | 0.9 | 2.6 | 0.00 | 0.00 | 0.00 | 69 | 955.9 |
| 20260830131251 | 72 | 232 | 0.9 | 2.6 | 0.00 | 0.00 | 0.00 | 68 | 955.9 |
| 20260830130751 | 72 | 212 | 0.9 | 3.5 | 0.00 | 0.00 | 0.00 | 69 | 955.8 |
| 20260830130251 | 72 | 55 | 0.9 | 4.3 | 0.00 | 0.00 | 0.00 | 68 | 955.8 |
| 20260830125751 | 71 | 226 | 0.9 | 4.3 | 0.00 | 0.00 | 0.00 | 71 | 955.7 |
| 20260830125250 | 71 | 126 | 0.9 | 4.3 | 0.00 | 0.00 | 0.00 | 70 | 955.8 |
| 20260830124750 | 70 | 237 | 0.9 | 5.2 | 0.00 | 0.00 | 0.00 | 69 | 955.6 |
| 20260830124250 | 72 | 236 | 0.9 | 5.2 | 0.00 | 0.00 | 0.00 | 65 | 955.6 |
| 20260830123750 | 71 | 89 | 0.9 | 5.2 | 0.00 | 0.00 | 0.00 | 67 | 955.7 |
| 20260830123250 | 71 | 235 | 1.7 | 5.2 | 0.00 | 0.00 | 0.00 | 69 | 955.8 |
| 20260830122750 | 69 | 268 | 1.7 | 5.2 | 0.00 | 0.00 | 0.00 | 69 | 955.8 |
| 20260830122250 | 71 | 169 | 0.9 | 4.3 | 0.00 | 0.00 | 0.00 | 67 | 955.8 |
| 20260830121720 | 70 | 132 | 0.9 | 4.3 | 0.00 | 0.00 | 0.00 | 68 | 955.8 |
| 20260830121220 | 70 | 163 | 0.9 | 3.5 | 0.00 | 0.00 | 0.00 | 73 | 955.7 |
| 20260830120720 | 69 | 46 | 0.9 | 3.5 | 0.00 | 0.00 | 0.00 | 76 | 955.7 |
| 20260830120220 | 69 | 233 | 0.9 | 3.5 | 0.00 | 0.00 | 0.00 | 78 | 955.8 |
| 20260830115720 | 68 | 265 | 0.9 | 3.5 | 0.00 | 0.00 | 0.00 | 78 | 955.8 |
| 20260830115220 | 69 | 221 | 0.9 | 4.3 | 0.00 | 0.00 | 0.00 | 79 | 955.7 |
| 20260830114720 | 68 | 121 | 0.9 | 4.3 | 0.00 | 0.00 | 0.00 | 80 | 955.8 |
| 20260830114220 | 67 | 110 | 0.9 | 5.2 | 0.00 | 0.00 | 0.00 | 82 | 955.7 |
| 20260830113719 | 66 | 164 | 0.9 | 5.2 | 0.00 | 0.00 | 0.00 | 83 | 955.7 |
| 20260830113220 | 66 | 249 | 1.7 | 5.2 | 0.00 | 0.00 | 0.00 | 85 | 955.8 |
| 20260830112719 | 65 | 109 | 1.7 | 5.2 | 0.00 | 0.00 | 0.00 | 85 | 955.8 |
| 20260830112219 | 66 | 287 | 1.7 | 5.2 | 0.00 | 0.00 | 0.00 | 84 | 955.8 |
| 20260830111719 | 65 | 159 | 1.7 | 5.2 | 0.00 | 0.00 | 0.00 | 84 | 955.9 |
| 20260830111219 | 65 | 209 | 1.7 | 5.2 | 0.00 | 0.00 | 0.00 | 86 | 955.8 |
| 20260830110719 | 65 | 120 | 1.7 | 5.2 | 0.00 | 0.00 | 0.00 | 85 | 955.7 |
| 20260830110219 | 64 | 132 | 1.7 | 7.0 | 0.00 | 0.00 | 0.00 | 87 | 955.7 |
| 20260830105719 | 64 | 107 | 2.6 | 7.0 | 0.00 | 0.00 | 0.00 | 88 | 955.8 |
| 20260830105219 | 63 | 94 | 2.6 | 7.0 | 0.00 | 0.00 | 0.00 | 88 | 955.7 |
| 20260830104719 | 63 | 79 | 2.6 | 7.0 | 0.00 | 0.00 | 0.00 | 88 | 955.7 |
| 20260830104219 | 63 | 87 | 3.5 | 7.8 | 0.00 | 0.00 | 0.00 | 90 | 955.7 |
| 20260830103719 | 62 | 113 | 4.3 | 7.8 | 0.00 | 0.00 | 0.00 | 89 | 955.7 |